Skip Page Navigation
NASA JPL Caltech
NASA Logo - Jet Propulsion Laboratory + View the NASA Portal
+ Center for Near-Earth Object Studies
JPL Home Earth Solar System Stars & Galaxies Technology
JPL Solar System Dynamics
BODIES ORBITS EPHEMERIDES TOOLS PHYSICAL DATA DISCOVERY FAQ SITE MAP
IMPORTANT: The SSD Announcement email list is now available. Major changes are coming in the near future, including possible hostname and/or URL changes. To be notified of such changes, subscribe to this email list.

Please visit this page for more details.


JPL Small-Body Database Browser
Search: [ help ]  
105179 (2000 OP28)
Classification: Main-belt Asteroid          SPK-ID: 2105179
Ephemeris | Orbit Diagram | Orbital Elements | Mission Design | Physical Parameters | Discovery Circumstances | Close-Approach Data ]

[ show orbit diagram ]
Orbital Elements at Epoch 2459000.5 (2020-May-31.0) TDB
Reference: JPL 22 (heliocentric ecliptic J2000)
 Element Value Uncertainty (1-sigma)   Units 
e .076939668987897 5.1428e-08  
a 2.644544317110715 1.4697e-08 au
q 2.441073952728393 1.3367e-07 au
i 7.231456209988036 4.4842e-06 deg
node 249.6833648432979 3.8996e-05 deg
peri 103.5178127886588 4.839e-05 deg
M 176.3064192896269 2.9994e-05 deg
tp 2458231.209578154182
(2018-Apr-22.70957815)
0.00012941 TDB
period 1570.813773998464
4.30
1.3095e-05
3.585e-08
d
yr
n .2291805724899074 1.9105e-09 deg/d
Q 2.848014681493038 1.5828e-08 au
  Orbit Determination Parameters
   # obs. used (total)      1029  
   data-arc span      7127 days (19.51 yr)  
   first obs. used      2000-07-30  
   last obs. used      2020-02-03  
   planetary ephem.      DE431  
   SB-pert. ephem.      SB431-N16  
   condition code      0  
   norm. resid. RMS      .51178  
   source      ORB  
   producer      Otto Matic  
   solution date      2020-Feb-24 02:18:13  

Additional Information
 Earth MOID = 1.44875 au 
 Jupiter MOID = 2.47569 au 
 T_jup = 3.378 
[ show covariance matrix ]

Ephemeris | Orbit Diagram | Orbital Elements | Mission Design | Physical Parameters | Discovery Circumstances | Close-Approach Data ]

Physical Parameter Table
Parameter Symbol Value Units Sigma Reference Notes
absolute magnitude H 14.6   n/a MPO469063  

105179 (2000 OP28)          Discovered 2000-Jul-30 by LINEAR at Socorro
Reference: 20051019/Numbers.arcLast Updated: 2005-10-26

[ show close-approach data ]
Alternate Designations
 2000 OP28 = 2001 VM30 
Ephemeris | Orbit Diagram | Orbital Elements | Mission Design | Physical Parameters | Discovery Circumstances | Close-Approach Data ]
ABOUT SSD CREDITS/AWARDS PRIVACY/COPYRIGHT GLOSSARY LINKS
FirstGov 2020-Apr-09 11:23 UT
(server date/time)  
NASA Home Page
Site Manager:   Ryan S. Park
Webmaster  Alan B. Chamberlin